Weather History for New Bern, NC

Change the Weather History Date:

Saturday, April 12, 2014

  Actual Average Record
Temperature  
Mean Temperature 70 °F 61 °F  
Max Temperature 84 °F 73 °F 92 °F (1981)
Min Temperature 56 °F 49 °F 32 °F (1973)
Degree Days  
Heating Degree Days 0 6  
Month to date heating degree days 25 82  
Since 1 July heating degree days 2557 2597  
Cooling Degree Days 5 2  
Month to date cooling degree days 38 14  
Year to date cooling degree days 46 28  
Growing Degree Days 21 (Base 50)    
Moisture  
Dew Point 53 °F    
Average Humidity 57    
Maximum Humidity 80    
Minimum Humidity 33    
Precipitation  
Precipitation 0.00 in 0.10 in 2.57 in (1959)
Month to date precipitation 0.11 1.28  
Year to date precipitation 11.24 13.35  
Snow  
Snow 0.00 in - - ()
Month to date snowfall 0.0  
Since 1 July snowfall 14.0  
Snow Depth 0.00 in    
Sea Level Pressure  
Sea Level Pressure 30.21 in    
Wind  
Wind Speed 6 mph (South)    
Max Wind Speed 14 mph    
Max Gust Speed 20 mph    
Visibility 10 miles    
Events      
T = Trace of Precipitation, MM = Missing Value Source: NWS Daily Summary

Daily Weather History Graph

Daily Weather History Graph

Search for Another Location

Airport:

Trip Planner

Search our weather history database for the weather conditions in past years. The results will help you decide how hot, cold, wet, or windy it might be!

Date:

Astronomy

Apr. 12, 2014 Rise Set
Actual Time 6:40 AM EDT 7:38 PM EDT
Civil Twilight 6:14 AM EDT 8:04 PM EDT
Nautical Twilight 5:43 AM EDT 8:35 PM EDT
Astronomical Twilight 5:11 AM EDT 9:06 PM EDT
Moon 5:19 PM EDT (4/12) 4:59 AM EDT (4/12)
Length of Visible Light 13h 50m
Length of Day
12h 58m
Waxing Gibbous, 93% of the Moon is Illuminated
Apr 12
Waxing Gibbous
Apr 15
Full
Apr 22
Last Quarter
Apr 29
New
May 6
First Quarter

Hourly Weather History & Observations

Time (EDT) Temp. Heat Index Dew Point Humidity Pressure Visibility Wind Dir Wind Speed Gust Speed Precip Events Conditions
12:54 AM 63.0 °F - 53.1 °F 70% 30.20 in 10.0 mi South 6.9 mph - N/A   Clear
1:54 AM 62.1 °F - 53.1 °F 72% 30.19 in 10.0 mi SSW 6.9 mph - N/A   Clear
2:54 AM 61.0 °F - 53.1 °F 75% 30.19 in 10.0 mi SSW 5.8 mph - N/A   Mostly Cloudy
3:54 AM 61.0 °F - 53.1 °F 75% 30.18 in 10.0 mi SSW 6.9 mph - N/A   Partly Cloudy
4:54 AM 60.1 °F - 53.1 °F 78% 30.19 in 10.0 mi SSW 4.6 mph - N/A   Clear
5:54 AM 60.1 °F - 53.1 °F 78% 30.19 in 10.0 mi South 4.6 mph - N/A   Mostly Cloudy
6:54 AM 60.1 °F - 53.1 °F 78% 30.22 in 10.0 mi South 5.8 mph - N/A   Clear
7:54 AM 64.0 °F - 55.0 °F 73% 30.22 in 10.0 mi SSW 8.1 mph - N/A   Clear
8:54 AM 69.1 °F - 55.0 °F 61% 30.23 in 10.0 mi SW 6.9 mph - N/A   Clear
9:54 AM 73.0 °F - 54.0 °F 51% 30.25 in 10.0 mi SSW 9.2 mph - N/A   Clear
10:54 AM 77.0 °F - 54.0 °F 45% 30.25 in 10.0 mi South 5.8 mph - N/A   Clear
11:54 AM 80.1 °F 79.9 °F 53.1 °F 39% 30.25 in 10.0 mi South 6.9 mph - N/A   Clear
12:54 PM 81.0 °F - 51.1 °F 35% 30.22 in 10.0 mi SSE 5.8 mph - N/A   Scattered Clouds
1:54 PM 78.1 °F - 52.0 °F 40% 30.21 in 10.0 mi SE 8.1 mph - N/A   Scattered Clouds
2:54 PM 82.9 °F - 51.1 °F 33% 30.19 in 10.0 mi Variable 6.9 mph - N/A   Overcast
3:54 PM 80.1 °F - 48.0 °F 32% 30.17 in 10.0 mi SE 6.9 mph - N/A   Mostly Cloudy
4:54 PM 81.0 °F - 48.9 °F 33% 30.16 in 10.0 mi SSW 12.7 mph 16.1 mph N/A   Clear
5:54 PM 79.0 °F - 48.9 °F 35% 30.17 in 10.0 mi South 9.2 mph - N/A   Clear
6:54 PM 73.9 °F - 53.1 °F 48% 30.18 in 10.0 mi South 11.5 mph - N/A   Clear
7:54 PM 70.0 °F - 53.1 °F 55% 30.19 in 10.0 mi South 6.9 mph - N/A   Clear
8:54 PM 66.9 °F - 54.0 °F 63% 30.22 in 10.0 mi South 6.9 mph - N/A   Clear
9:54 PM 64.0 °F - 54.0 °F 70% 30.23 in 10.0 mi South 3.5 mph - N/A   Clear
10:54 PM 62.1 °F - 54.0 °F 75% 30.23 in 10.0 mi SSE 3.5 mph - N/A   Clear
11:54 PM 59.0 °F - 53.1 °F 81% 30.22 in 10.0 mi Calm Calm - N/A   Clear